INTELSAT 21 (IS-21)

Last updated on Sun Jun 21 2026 00:03:05 GMT+0000 (Coordinated Universal Time)

1 38749U 12045A 26171.38054375 -.00000289 00000+0 00000+0 0 9993 2 38749 0.0191 17.6891 0001460 83.4046 246.4937 1.00272238 50557
UTC large
Height (km)
Speed (km/s)
/
Latitude / Longitude
Inclination (degrees)
Orbital Period (minutes)
Azimuth
Elevation
Range (km)
Doppler Factor

Next 0 passes for location: London (51.5072 / 0.1276)

No passes found over London.
INTELSAT 21 (IS-21)